| time (UTC) | temp C | wind direction | speed KPH | gust KPH | rain 1hr cm | rain 24hr cm | rain mn cm | humidity % | barometer mb |
| 20260503195034 | 8 | 0.0 | 0.0 | 0.00 | 0.00 | 0.00 | 64 | 1019.3 | |
| 20260503194028 | 8 | 0.0 | 0.0 | 0.00 | 0.00 | 0.00 | 62 | 1019.4 | |
| 20260503193021 | 9 | 0.0 | 0.0 | 0.00 | 0.00 | 0.00 | 61 | 1019.3 | |
| 20260503192034 | 9 | 0.0 | 0.0 | 0.00 | 0.00 | 0.00 | 60 | 1019.4 | |
| 20260503191020 | 9 | 0.0 | 0.0 | 0.00 | 0.00 | 0.00 | 59 | 1019.2 | |
| 20260503190028 | 10 | 0.0 | 0.0 | 0.00 | 0.00 | 0.00 | 58 | 1019.1 | |
| 20260503185021 | 10 | 0.0 | 0.0 | 0.00 | 0.00 | 0.00 | 55 | 1019.0 | |
| 20260503184028 | 11 | 0.0 | 0.0 | 0.00 | 0.00 | 0.00 | 54 | 1019.0 | |
| 20260503183033 | 12 | 0.0 | 0.0 | 0.00 | 0.00 | 0.00 | 51 | 1018.9 | |
| 20260503182029 | 12 | 0.0 | 0.0 | 0.00 | 0.00 | 0.00 | 48 | 1018.9 | |
| 20260503181033 | 13 | 0.0 | 0.0 | 0.00 | 0.00 | 0.00 | 46 | 1018.8 | |
| 20260503180028 | 15 | 0.0 | 0.0 | 0.00 | 0.00 | 0.00 | 44 | 1018.7 | |
| 20260503175034 | 16 | 0.0 | 0.0 | 0.00 | 0.00 | 0.00 | 41 | 1018.6 | |
| 20260503174028 | 17 | 0.0 | 0.0 | 0.00 | 0.00 | 0.00 | 38 | 1018.6 | |
| 20260503173033 | 18 | 0.0 | 0.0 | 0.00 | 0.00 | 0.00 | 35 | 1018.7 | |
| 20260503172028 | 18 | 0.0 | 0.0 | 0.00 | 0.00 | 0.00 | 33 | 1018.6 | |
| 20260503171033 | 19 | 137 | 0.0 | 4.8 | 0.00 | 0.00 | 0.00 | 31 | 1018.6 |
| 20260503131033 | 24 | 138 | 3.2 | 8.0 | 0.00 | 0.00 | 0.00 | 25 | 1020.1 |
| 20260503081031 | 16 | 44 | 1.6 | 6.4 | 0.00 | 0.00 | 0.00 | 42 | 1022.5 |
| 20260503072029 | 13 | 68 | 1.6 | 6.4 | 0.00 | 0.00 | 0.00 | 48 | 1022.6 |
| 20260503071033 | 13 | 75 | 1.6 | 4.8 | 0.00 | 0.00 | 0.00 | 47 | 1022.6 |
| 20260503055021 | 10 | 43 | 0.0 | 1.6 | 0.00 | 0.00 | 0.00 | 56 | 1022.4 |
| 20260503054035 | 10 | 48 | 0.0 | 1.6 | 0.00 | 0.00 | 0.00 | 57 | 1022.4 |
| 20260503053021 | 9 | 83 | 0.0 | 4.8 | 0.00 | 0.00 | 0.00 | 58 | 1022.4 |
| 20260503052029 | 8 | 76 | 0.0 | 1.6 | 0.00 | 0.00 | 0.00 | 60 | 1022.2 |
| 20260503051022 | 8 | 8 | 0.0 | 1.6 | 0.00 | 0.00 | 0.00 | 62 | 1022.2 |
| 20260503050029 | 7 | 32 | 0.0 | 1.6 | 0.00 | 0.00 | 0.00 | 64 | 1022.2 |
| 20260503045033 | 7 | 0.0 | 0.0 | 0.00 | 0.00 | 0.00 | 66 | 1022.3 | |
| 20260503044030 | 6 | 46 | 0.0 | 1.6 | 0.00 | 0.00 | 0.00 | 68 | 1022.2 |
| 20260503043021 | 5 | 131 | 0.0 | 1.6 | 0.00 | 0.00 | 0.00 | 73 | 1022.1 |
| 20260503042049 | 4 | 0.0 | 0.0 | 0.00 | 0.00 | 0.00 | 76 | 1022.0 | |
| 20260503041022 | 4 | 0.0 | 0.0 | 0.00 | 0.00 | 0.00 | 77 | 1021.8 | |
| 20260503040035 | 4 | 0.0 | 0.0 | 0.00 | 0.00 | 0.00 | 76 | 1021.8 | |
| 20260503035033 | 3 | 244 | 0.0 | 1.6 | 0.00 | 0.00 | 0.00 | 79 | 1021.8 |
| 20260503034030 | 3 | 0.0 | 0.0 | 0.00 | 0.00 | 0.00 | 80 | 1021.7 | |
| 20260503033033 | 2 | 0.0 | 0.0 | 0.00 | 0.00 | 0.00 | 83 | 1021.7 | |
| 20260503032050 | 2 | 0.0 | 0.0 | 0.00 | 0.00 | 0.00 | 84 | 1021.5 | |
| 20260503031033 | 3 | 0.0 | 0.0 | 0.00 | 0.00 | 0.00 | 82 | 1021.6 | |
| 20260503030029 | 3 | 0.0 | 0.0 | 0.00 | 0.00 | 0.00 | 79 | 1021.5 | |
| 20260503025033 | 3 | 0.0 | 0.0 | 0.00 | 0.00 | 0.00 | 82 | 1021.5 | |
| 20260503024029 | 3 | 0.0 | 0.0 | 0.00 | 0.00 | 0.00 | 82 | 1021.4 | |
| 20260503023033 | 3 | 0.0 | 0.0 | 0.00 | 0.00 | 0.00 | 83 | 1021.3 | |
| 20260503022050 | 3 | 0.0 | 0.0 | 0.00 | 0.00 | 0.00 | 85 | 1021.3 | |
| 20260503021053 | 3 | 0.0 | 0.0 | 0.00 | 0.00 | 0.00 | 81 | 1021.2 | |
| 20260503020050 | 3 | 0.0 | 0.0 | 0.00 | 0.00 | 0.00 | 80 | 1021.2 | |
| 20260503015033 | 3 | 0.0 | 0.0 | 0.00 | 0.00 | 0.00 | 81 | 1021.3 | |
| 20260503014029 | 3 | 0.0 | 0.0 | 0.00 | 0.00 | 0.00 | 83 | 1021.4 | |
| 20260503013033 | 3 | 0.0 | 0.0 | 0.00 | 0.00 | 0.00 | 79 | 1021.3 | |
| 20260503012049 | 4 | 0.0 | 0.0 | 0.00 | 0.00 | 0.00 | 77 | 1021.2 | |
| 20260503011033 | 5 | 119 | 0.0 | 1.6 | 0.00 | 0.00 | 0.00 | 79 | 1021.3 |
| 20260503010030 | 3 | 0.0 | 0.0 | 0.00 | 0.00 | 0.00 | 84 | 1021.1 | |
| 20260503005053 | 3 | 0.0 | 0.0 | 0.00 | 0.00 | 0.00 | 82 | 1021.1 | |
| 20260503004030 | 3 | 0.0 | 0.0 | 0.00 | 0.00 | 0.00 | 82 | 1021.3 | |
| 20260503003053 | 3 | 0.0 | 0.0 | 0.00 | 0.00 | 0.00 | 80 | 1021.2 | |
| 20260503002029 | 3 | 0.0 | 0.0 | 0.00 | 0.00 | 0.00 | 80 | 1021.2 | |
| 20260503001033 | 3 | 0.0 | 0.0 | 0.00 | 0.00 | 0.00 | 81 | 1021.1 | |
| 20260503000029 | 4 | 0.0 | 0.0 | 0.00 | 0.00 | 0.00 | 79 | 1021.1 | |
| 20260502235033 | 4 | 0.0 | 0.0 | 0.00 | 0.00 | 0.00 | 80 | 1021.0 | |
| 20260502234030 | 4 | 0.0 | 0.0 | 0.00 | 0.00 | 0.00 | 79 | 1021.1 | |
| 20260502233042 | 4 | 0.0 | 0.0 | 0.00 | 0.00 | 0.00 | 78 | 1021.0 | |
| 20260502232035 | 5 | 0.0 | 0.0 | 0.00 | 0.00 | 0.00 | 76 | 1021.1 | |
| 20260502231021 | 5 | 0.0 | 0.0 | 0.00 | 0.00 | 0.00 | 76 | 1021.2 | |
| 20260502230029 | 5 | 0.0 | 0.0 | 0.00 | 0.00 | 0.00 | 75 | 1021.2 | |
| 20260502225043 | 5 | 0.0 | 0.0 | 0.00 | 0.00 | 0.00 | 74 | 1021.2 | |
| 20260502224029 | 6 | 0.0 | 0.0 | 0.00 | 0.00 | 0.00 | 72 | 1021.1 | |
| 20260502223033 | 6 | 0.0 | 0.0 | 0.00 | 0.00 | 0.00 | 72 | 1021.1 | |
| 20260502222050 | 6 | 0.0 | 0.0 | 0.00 | 0.00 | 0.00 | 72 | 1021.0 | |
| 20260502221034 | 6 | 0.0 | 0.0 | 0.00 | 0.00 | 0.00 | 71 | 1021.1 | |
| 20260502220035 | 6 | 0.0 | 0.0 | 0.00 | 0.00 | 0.00 | 70 | 1021.0 | |
| 20260502215033 | 6 | 0.0 | 0.0 | 0.00 | 0.00 | 0.00 | 69 | 1021.0 | |
| 20260502214030 | 6 | 0.0 | 0.0 | 0.00 | 0.00 | 0.00 | 70 | 1021.0 | |
| 20260502213033 | 7 | 0.0 | 0.0 | 0.00 | 0.00 | 0.00 | 67 | 1021.0 | |
| 20260502212030 | 7 | 0.0 | 0.0 | 0.00 | 0.00 | 0.00 | 67 | 1020.9 | |
| 20260502211052 | 7 | 0.0 | 0.0 | 0.00 | 0.00 | 0.00 | 66 | 1020.9 | |
| 20260502210029 | 8 | 0.0 | 0.0 | 0.00 | 0.00 | 0.00 | 63 | 1021.0 | |
| 20260502205053 | 8 | 0.0 | 0.0 | 0.00 | 0.00 | 0.00 | 63 | 1021.0 | |
| 20260502204029 | 8 | 0.0 | 0.0 | 0.00 | 0.00 | 0.00 | 61 | 1021.1 | |
| 20260502203042 | 9 | 0.0 | 0.0 | 0.00 | 0.00 | 0.00 | 59 | 1020.9 | |
| 20260502202030 | 10 | 0.0 | 0.0 | 0.00 | 0.00 | 0.00 | 58 | 1020.9 | |
| 20260502201022 | 10 | 0.0 | 0.0 | 0.00 | 0.00 | 0.00 | 55 | 1020.9 | |
| 20260502200049 | 11 | 0.0 | 0.0 | 0.00 | 0.00 | 0.00 | 54 | 1020.9 |